DW8722 Weather Reports


time (UTC)temp
C
wind
direction
speed
KPH
gust
KPH
rain 1hr
cm
rain 24hr
cm
rain mn
cm
humidity
%
barometer
mb
20260506050539 13 11 12.9 22.5 0.00 0.00 0.00 81 1009.1
20260506044331 14 342 11.3 22.5 0.00 0.00 0.00 81 1009.1
20260506043323 15 350 11.3 22.5 0.00 0.00 0.00 81 1009.0
20260506042314 15 5 9.7 27.4 0.00 0.00 0.00 81 1008.9
20260506041334 15 9 14.5 27.4 0.00 0.00 0.00 81 1008.7
20260506040339 15 0 12.9 24.1 0.00 0.00 0.00 82 1008.6
20260506035324 15 326 14.5 24.1 0.00 0.00 0.00 82 1008.8
20260506034314 15 343 12.9 24.1 0.00 0.00 0.00 82 1008.5
20260506033323 15 325 14.5 27.4 0.00 0.00 0.00 82 1008.3
20260506032329 16 348 11.3 27.4 0.00 0.00 0.00 82 1008.2
20260506031304 16 340 9.7 22.5 0.00 0.00 0.00 81 1008.0
20260506030249 17 329 12.9 24.1 0.00 0.00 0.00 80 1007.7
20260506025312 17 339 9.7 24.1 0.00 0.00 0.00 80 1007.4
20260506021941 19 0 11.3 22.5 0.00 0.00 0.00 80 1006.4
20260506014709 20 333 6.4 22.5 0.00 0.00 0.00 78 1005.8
20260506013651 20 344 9.7 22.5 0.00 0.00 0.00 78 1005.9
20260506012645 21 324 9.7 20.9 0.00 0.00 0.00 78 1005.8
20260506011621 21 5 8.0 17.7 0.00 0.00 0.00 78 1005.4
20260506010610 21 348 8.0 22.5 0.00 0.00 0.00 77 1005.2
20260506005627 22 11 11.3 22.5 0.00 0.00 0.00 75 1004.7
20260506004610 22 355 4.8 17.7 0.00 0.00 0.00 75 1005.0
20260506003602 23 340 4.8 17.7 0.00 0.00 0.00 74 1005.0
20260506002608 23 313 4.8 20.9 0.00 0.00 0.00 73 1005.0
20260506001558 23 302 9.7 22.5 0.00 0.00 0.00 72 1004.7
20260506000543 24 313 8.0 25.7 0.00 0.00 0.00 70 1004.3
20260505235542 25 318 11.3 25.7 0.00 0.00 0.00 69 1004.2
20260505234513 25 311 12.9 24.1 0.00 0.00 0.00 66 1004.0
20260505231244 27 309 3.2 12.9 0.00 0.00 0.00 61 1003.6
20260505230221 28 271 4.8 14.5 0.00 0.00 0.00 59 1003.3
20260505225242 30 245 4.8 16.1 0.00 0.00 0.00 65 1003.3
20260505224250 30 204 6.4 16.1 0.00 0.00 0.00 63 1003.0
20260505223231 30 196 6.4 16.1 0.00 0.00 0.00 63 1002.7
20260505222224 30 174 4.8 12.9 0.00 0.00 0.00 64 1002.6
20260505221221 30 210 4.8 12.9 0.00 0.00 0.00 62 1002.6
20260505220209 30 223 8.0 14.5 0.00 0.00 0.00 63 1002.9
20260505215231 31 186 8.0 16.1 0.00 0.00 0.00 63 1002.9
20260505214220 31 204 8.0 22.5 0.00 0.00 0.00 62 1002.9
20260505213227 31 196 9.7 24.1 0.00 0.00 0.00 62 1003.0
20260505212251 30 196 11.3 24.1 0.00 0.00 0.00 64 1003.0
20260505211303 30 217 12.9 24.1 0.00 0.00 0.00 66 1003.2
20260505210310 30 193 12.9 24.1 0.00 0.00 0.00 66 1003.2
20260505205305 29 209 11.3 22.5 0.00 0.00 0.00 68 1003.3
20260505204243 28 180 14.5 22.5 0.00 0.00 0.00 70 1003.3
20260505203252 28 171 11.3 22.5 0.00 0.00 0.00 69 1003.6
20260505202243 28 183 12.9 25.7 0.00 0.00 0.00 70 1003.7
20260505201235 28 187 12.9 29.0 0.00 0.00 0.00 69 1003.6
20260505195103 29 202 16.1 29.0 0.00 0.00 0.00 68 1003.8
20260505194042 28 194 17.7 29.0 0.00 0.00 0.00 70 1003.7
20260505193027 28 180 16.1 30.6 0.00 0.00 0.00 71 1003.8
20260505192026 27 196 19.3 30.6 0.00 0.00 0.00 70 1003.6
20260505190954 28 146 14.5 32.2 0.00 0.00 0.00 70 1003.8
20260505190014 27 207 14.5 32.2 0.00 0.00 0.00 72 1003.8
20260505185034 27 196 16.1 30.6 0.00 0.00 0.00 72 1003.8
20260505182854 27 201 16.1 32.2 0.00 0.00 0.00 71 1004.0
20260505181831 27 207 17.7 35.4 0.00 0.00 0.00 72 1004.1
20260505175700 27 202 20.9 41.8 0.00 0.00 0.00 73 1003.9
20260505174647 27 176 17.7 38.6 0.00 0.00 0.00 75 1003.8
20260505173648 26 179 16.1 30.6 0.00 0.00 0.00 76 1003.9
20260505172633 25 181 16.1 40.2 0.00 0.00 0.00 77 1004.1
20260505171648 25 199 19.3 40.2 0.00 0.00 0.00 78 1004.2
20260505164359 24 159 16.1 32.2 0.00 0.00 0.00 80 1003.7
20260505162240 25 221 20.9 46.7 0.00 0.00 0.00 78 1003.9
20260505161215 25 205 19.3 46.7 0.00 0.00 0.00 78 1003.9
20260505160226 25 195 17.7 35.4 0.00 0.00 0.00 79 1004.0
20260505153313 23 180 20.9 38.6 0.00 0.00 0.00 81 1003.7
20260505152243 23 203 22.5 38.6 0.00 0.00 0.00 82 1003.9
20260505151252 23 221 20.9 37.0 0.00 0.00 0.00 82 1004.0
20260505150231 23 200 22.5 45.1 0.00 0.00 0.00 82 1004.0
20260505140118 22 206 22.5 40.2 0.00 0.00 0.00 85 1003.6
20260505130120 21 205 17.7 30.6 0.00 0.00 0.00 86 1003.9
20260505123013 21 169 17.7 35.4 0.00 0.00 0.00 87 1003.6
20260505121947 21 0 14.5 29.0 0.00 0.00 0.00 87 1003.6
20260505120919 21 213 16.1 27.4 0.00 0.00 0.00 86 1003.5
20260505115859 21 187 16.1 37.0 0.00 0.00 0.00 86 1003.3
20260505114857 21 186 16.1 37.0 0.00 0.00 0.00 86 1003.2
20260505113844 21 173 16.1 33.8 0.00 0.00 0.00 86 1003.3
20260505112843 21 188 17.7 29.0 0.00 0.00 0.00 86 1003.3
20260505110656 21 201 17.7 30.6 0.00 0.00 0.00 86 1003.0
20260505101445 21 186 19.3 33.8 0.00 0.00 0.00 86 1003.2
20260505100439 21 194 17.7 40.2 0.00 0.00 0.00 86 1003.2
20260505095423 21 217 19.3 40.2 0.00 0.00 0.00 86 1003.4
20260505094422 21 166 16.1 33.8 0.00 0.00 0.00 86 1003.4
20260505093440 21 181 16.1 32.2 0.00 0.00 0.00 86 1003.6
20260505092436 21 207 19.3 33.8 0.00 0.00 0.00 86 1003.6
20260505091448 21 199 20.9 40.2 0.00 0.00 0.00 86 1003.7
20260505084211 21 203 17.7 35.4 0.00 0.00 0.00 86 1003.6
20260505083222 21 196 19.3 35.4 0.00 0.00 0.00 85 1003.6
20260505082237 21 196 19.3 32.2 0.00 0.00 0.00 85 1003.7
20260505081226 21 192 17.7 29.0 0.00 0.00 0.00 85 1003.8
20260505080244 21 185 19.3 43.5 0.00 0.00 0.00 85 1003.8
20260505075250 21 187 20.9 43.5 0.00 0.00 0.00 84 1003.9
20260505074232 21 180 22.5 41.8 0.00 0.00 0.00 84 1004.0
20260505073212 21 187 20.9 46.7 0.00 0.00 0.00 83 1004.2
20260505072231 21 221 24.1 46.7 0.00 0.00 0.00 83 1004.3
20260505071228 21 192 20.9 40.2 0.00 0.00 0.00 82 1004.3
20260505063943 21 188 17.7 38.6 0.00 0.00 0.00 81 1004.7
20260505062936 21 196 19.3 37.0 0.00 0.00 0.00 81 1004.8
20260505060828 21 194 16.1 32.2 0.00 0.00 0.00 80 1004.8
20260505055758 21 206 17.7 37.0 0.00 0.00 0.00 79 1004.9